AEROCUBE 12A (43556 NORAD) Tracking and Keplerian Element Data

This shows tracking and keplerian element data for the satellite.

Feedback or suggestion? Click here.




ElementValue
Catalog43556
NameAEROCUBE 12A
Epoch Orbit4273
Epoch Day111.99035536
Epoch Year2019
RAAN333.4032
Inclination51.6434
Eccentricity0.0007964
Argument of Perigee220.2038
Mean Anonmoly139.8353
Mean Motion15.28531739
Decay Rate4.88E-06
L11 43556U 18046C 19111.99035536 .00000488 00000-0 30001-4 0 9993
L22 43556 51.6434 333.4032 0007964 220.2038 139.8353 15.28531739 42731

Live tracking and technical data element details for AEROCUBE 12A (NORAD 43556). AEROCUBE 12A can be tracked NOW for your location showing map with azimuth and elevation plus other details from your city location.

Track the satellite on the map from your city or location and see movement details for azimuth, elevation, latitude, longitude, range, height, and movement on the map or in text.







IsCatalogInMostPopularTable: catalog: 43556, numindb: 136
Update: records affected: 1



GetName: 43556 AEROCUBE 12A

Hit Count: updated at: Tue, 23 Apr 2019 19:50:06 GMT